This is the latest recevied weather packets stored in our database for station/object KC5DP. If no packets are shown the sender has not sent any weather packets the latest 10 day(s).
| Time | Temp. | Humidity | Pressure | Rain* | Wind** | Luminosity | Snow |
|---|---|---|---|---|---|---|---|
| 1777911084 | 23.89° C | 46% | 1017 hPa | 0 mm | - | 697 W/m² | - |
| 1777910781 | 23.89° C | 49% | 1016.7 hPa | 0 mm | - | 659 W/m² | - |
| 1777910478 | 24.44° C | 43% | 1017.1 hPa | 0 mm | - | 616 W/m² | - |
| 1777910174 | 24.44° C | 44% | 1017.3 hPa | 0 mm | - | 670 W/m² | - |
| 1777909872 | 24.44° C | 49% | 1017.1 hPa | 0 mm | - | 652 W/m² | - |
| 1777909568 | 24.44° C | 50% | 1017.2 hPa | 0 mm | - | 641 W/m² | - |
| 1777909208 | 24.44° C | 48% | 1017.1 hPa | 0 mm | - | 616 W/m² | - |
| 1777908905 | 24.44° C | 48% | 1017.1 hPa | 0 mm | - | 616 W/m² | - |
| 1777908603 | 23.89° C | 50% | 1017.1 hPa | 0 mm | - | 606 W/m² | - |
| 1777908299 | 23.33° C | 51% | 1017.2 hPa | 0 mm | - | 592 W/m² | - |
| 1777907995 | 23.33° C | 50% | 1017.4 hPa | 0 mm | - | 581 W/m² | - |
| 1777907691 | 23.33° C | 52% | 1017.4 hPa | 0 mm | - | 567 W/m² | - |
| 1777907387 | 23.89° C | 52% | 1017.1 hPa | 0 mm | - | 553 W/m² | - |
| 1777907083 | 23.89° C | 56% | 1017.5 hPa | 0 mm | - | 541 W/m² | - |
| 1777906781 | 22.78° C | 59% | 1017.5 hPa | 0 mm | - | 524 W/m² | - |
| 1777906478 | 22.78° C | 59% | 1017.4 hPa | 0 mm | - | 514 W/m² | - |
| 1777906174 | 22.22° C | 60% | 1017.3 hPa | 0 mm | - | 498 W/m² | - |
| 1777905871 | 22.22° C | 61% | 1017.5 hPa | 0 mm | - | 483 W/m² | - |
| 1777905568 | 22.22° C | 59% | 1017.3 hPa | 0 mm | - | 468 W/m² | - |
| 1777905265 | 22.22° C | 64% | 1017.4 hPa | 0 mm | - | 452 W/m² | - |
| 1777904962 | 22.22° C | 66% | 1017.2 hPa | 0 mm | - | 438 W/m² | - |
| 1777904659 | 21.67° C | 66% | 1017.4 hPa | 0 mm | - | 423 W/m² | - |
| 1777904356 | 21.11° C | 66% | 1017.3 hPa | 0 mm | - | 406 W/m² | - |
| 1777904053 | 21.11° C | 67% | 1017.3 hPa | 0 mm | - | 392 W/m² | - |
| 1777903750 | 21.11° C | 67% | 1017.4 hPa | 0 mm | - | 376 W/m² | - |
* Rain latest hour (hover to see other rain measurements)
** Current wind speed in m/s (hover to see current wind gust speed)